• In Deutschland
  • Länderverzeichnis
  • Für 7 Tage
  • Wassertemperatur
  • Satellitenkarten
  • Wetterkarte
  • Widgets
  • user-avatar
    Anmelden

    Stündliche Wetter Scharan

    Heute, 24 April, Dienstag

    Zeit Temperatur Niederschläge Wind Luftdruck Luftfeuchtigkeit
    00:00 +17°C° 0 mm 2 m/S 589 mmHg 26%
    01:00 +17°C° 0 mm 2 m/S 589 mmHg 27%
    02:00 +16°C° 0 mm 2 m/S 588 mmHg 27%
    03:00 +15°C° 0 mm 2 m/S 588 mmHg 29%
    04:00 +15°C° 0 mm 1 m/S 588 mmHg 30%
    05:00 +14°C° 0 mm 1 m/S 587 mmHg 31%
    06:00 +15°C° 0 mm 1 m/S 588 mmHg 28%
    07:00 +16°C° 0 mm 1 m/S 589 mmHg 25%
    08:00 +19°C° 0 mm 1 m/S 590 mmHg 22%
    09:00 +20°C° 0 mm 1 m/S 590 mmHg 20%
    10:00 +21°C° 0 mm 2 m/S 591 mmHg 18%
    11:00 +22°C° 0 mm 3 m/S 591 mmHg 16%
    12:00 +23°C° 0 mm 4 m/S 591 mmHg 15%
    13:00 +25°C° 0 mm 4 m/S 591 mmHg 14%
    14:00 +26°C° 0 mm 5 m/S 591 mmHg 13%
    15:00 +26°C° 0 mm 5 m/S 590 mmHg 13%
    16:00 +26°C° 0 mm 6 m/S 590 mmHg 14%
    17:00 +26°C° 0 mm 7 m/S 589 mmHg 13%
    18:00 +24°C° 0 mm 6 m/S 589 mmHg 16%
    19:00 +22°C° 0 mm 6 m/S 589 mmHg 19%
    20:00 +21°C° 0 mm 6 m/S 589 mmHg 22%
    21:00 +20°C° 0 mm 5 m/S 589 mmHg 25%
    22:00 +20°C° 0 mm 5 m/S 588 mmHg 27%
    23:00 +19°C° 0 mm 4 m/S 588 mmHg 30%

    Morgen, 25 April, Mittwoch

    Zeit Temperatur Niederschläge Wind Luftdruck Luftfeuchtigkeit
    00:00 +18°C° 0 mm 4 m/S 588 mmHg 32%
    01:00 +17°C° 0 mm 3 m/S 588 mmHg 35%
    02:00 +16°C° 0 mm 3 m/S 587 mmHg 37%
    03:00 +16°C° 0 mm 3 m/S 587 mmHg 40%
    04:00 +15°C° 0 mm 2 m/S 587 mmHg 43%
    05:00 +14°C° 0 mm 2 m/S 586 mmHg 45%
    06:00 +15°C° 0 mm 2 m/S 587 mmHg 43%
    07:00 +16°C° 0 mm 2 m/S 588 mmHg 40%
    08:00 +17°C° 0 mm 3 m/S 588 mmHg 37%
    09:00 +18°C° 0 mm 4 m/S 589 mmHg 30%
    10:00 +20°C° 0 mm 5 m/S 589 mmHg 24%
    11:00 +21°C° 0 mm 6 m/S 590 mmHg 18%
    12:00 +22°C° 0 mm 6 m/S 590 mmHg 16%
    13:00 +23°C° 0 mm 6 m/S 590 mmHg 13%
    14:00 +24°C° 0 mm 6 m/S 590 mmHg 11%
    15:00 +24°C° 0 mm 7 m/S 589 mmHg 11%
    16:00 +24°C° 0 mm 7 m/S 589 mmHg 11%
    17:00 +24°C° 0 mm 7 m/S 589 mmHg 11%
    18:00 +22°C° 0 mm 6 m/S 589 mmHg 12%
    19:00 +21°C° 0 mm 5 m/S 589 mmHg 14%
    20:00 +20°C° 0 mm 4 m/S 588 mmHg 16%
    21:00 +19°C° 0 mm 4 m/S 588 mmHg 18%
    22:00 +18°C° 0 mm 3 m/S 588 mmHg 20%
    23:00 +17°C° 0 mm 3 m/S 588 mmHg 22%

    übermorgen, 26 April, Donnerstag

    Zeit Temperatur Niederschläge Wind Luftdruck Luftfeuchtigkeit
    00:00 +17°C° 0 mm 3 m/S 587 mmHg 25%
    01:00 +16°C° 0 mm 3 m/S 587 mmHg 27%
    02:00 +14°C° 0 mm 3 m/S 587 mmHg 30%
    03:00 +13°C° 0 mm 3 m/S 586 mmHg 31%
    04:00 +13°C° 0 mm 3 m/S 586 mmHg 33%
    05:00 +12°C° 0 mm 3 m/S 586 mmHg 34%
    06:00 +13°C° 0 mm 3 m/S 586 mmHg 32%
    07:00 +14°C° 0 mm 3 m/S 587 mmHg 31%
    08:00 +16°C° 0 mm 3 m/S 588 mmHg 29%
    09:00 +18°C° 0 mm 3 m/S 588 mmHg 25%
    10:00 +19°C° 0 mm 2 m/S 588 mmHg 22%
    11:00 +20°C° 0 mm 2 m/S 589 mmHg 19%
    12:00 +21°C° 0 mm 2 m/S 589 mmHg 17%
    13:00 +22°C° 0 mm 3 m/S 589 mmHg 16%
    14:00 +24°C° 0 mm 3 m/S 589 mmHg 14%
    15:00 +23°C° 0 mm 4 m/S 589 mmHg 15%
    16:00 +23°C° 0 mm 4 m/S 588 mmHg 16%
    17:00 +23°C° 0 mm 4 m/S 588 mmHg 17%
    18:00 +22°C° 0 mm 4 m/S 588 mmHg 19%
    19:00 +22°C° 0 mm 4 m/S 588 mmHg 22%
    20:00 +21°C° 0 mm 4 m/S 588 mmHg 24%
    21:00 +20°C° 0 mm 4 m/S 588 mmHg 26%
    22:00 +19°C° 0 mm 4 m/S 588 mmHg 27%
    23:00 +19°C° 0 mm 4 m/S 588 mmHg 29%

    27 April, Freitag

    Zeit Temperatur Niederschläge Wind Luftdruck Luftfeuchtigkeit
    00:00 +18°C° 0 mm 3 m/S 588 mmHg 30%
    01:00 +17°C° 0 mm 3 m/S 587 mmHg 31%
    02:00 +16°C° 0 mm 2 m/S 587 mmHg 33%
    03:00 +16°C° 0 mm 2 m/S 587 mmHg 33%
    04:00 +15°C° 0 mm 2 m/S 586 mmHg 33%
    05:00 +15°C° 0 mm 2 m/S 586 mmHg 33%
    06:00 +16°C° 0 mm 2 m/S 587 mmHg 30%
    07:00 +17°C° 0 mm 2 m/S 588 mmHg 27%
    08:00 +18°C° 0 mm 2 m/S 589 mmHg 23%
    09:00 +19°C° 0 mm 2 m/S 589 mmHg 21%
    10:00 +21°C° 0 mm 1 m/S 590 mmHg 18%
    11:00 +23°C° 0 mm 1 m/S 590 mmHg 16%
    12:00 +23°C° 0 mm 2 m/S 590 mmHg 15%
    13:00 +24°C° 0 mm 2 m/S 590 mmHg 14%
    14:00 +25°C° 0 mm 3 m/S 590 mmHg 13%
    15:00 +25°C° 0 mm 3 m/S 590 mmHg 13%
    16:00 +25°C° 0 mm 4 m/S 589 mmHg 13%
    17:00 +26°C° 0 mm 4 m/S 589 mmHg 13%
    18:00 +25°C° 0 mm 4 m/S 589 mmHg 15%
    19:00 +23°C° 0 mm 5 m/S 589 mmHg 17%
    20:00 +22°C° 0 mm 5 m/S 590 mmHg 19%
    21:00 +21°C° 0 mm 4 m/S 589 mmHg 20%
    22:00 +20°C° 0 mm 4 m/S 589 mmHg 22%
    23:00 +19°C° 0 mm 3 m/S 589 mmHg 23%

    28 April, Samstag

    Zeit Temperatur Niederschläge Wind Luftdruck Luftfeuchtigkeit
    00:00 +18°C° 0 mm 3 m/S 589 mmHg 24%
    01:00 +18°C° 0 mm 3 m/S 588 mmHg 25%
    02:00 +17°C° 0 mm 2 m/S 588 mmHg 26%
    03:00 +16°C° 0 mm 2 m/S 587 mmHg 27%
    04:00 +16°C° 0 mm 2 m/S 587 mmHg 28%
    05:00 +15°C° 0 mm 1 m/S 587 mmHg 29%
    06:00 +16°C° 0 mm 1 m/S 588 mmHg 27%
    07:00 +18°C° 0 mm 1 m/S 588 mmHg 25%
    08:00 +19°C° 0 mm 1 m/S 589 mmHg 22%
    09:00 +20°C° 0 mm 1 m/S 589 mmHg 21%
    10:00 +22°C° 0 mm 1 m/S 590 mmHg 19%
    11:00 +23°C° 0 mm 1 m/S 590 mmHg 17%
    12:00 +24°C° 0 mm 2 m/S 590 mmHg 15%
    13:00 +25°C° 0 mm 2 m/S 590 mmHg 14%
    14:00 +26°C° 0 mm 3 m/S 590 mmHg 13%
    15:00 +26°C° 0 mm 4 m/S 590 mmHg 13%
    16:00 +26°C° 0 mm 4 m/S 590 mmHg 13%
    17:00 +26°C° 0 mm 4 m/S 590 mmHg 13%
    18:00 +26°C° 0 mm 5 m/S 590 mmHg 15%
    19:00 +25°C° 0 mm 5 m/S 590 mmHg 16%
    20:00 +23°C° 0 mm 5 m/S 590 mmHg 17%
    21:00 +22°C° 0 mm 4 m/S 590 mmHg 20%
    22:00 +21°C° 0 mm 3 m/S 590 mmHg 22%
    23:00 +20°C° 0 mm 2 m/S 590 mmHg 25%

    29 April, Sonntag

    Zeit Temperatur Niederschläge Wind Luftdruck Luftfeuchtigkeit
    00:00 +19°C° 0 mm 2 m/S 589 mmHg 26%
    01:00 +19°C° 0 mm 2 m/S 589 mmHg 28%
    02:00 +18°C° 0 mm 2 m/S 588 mmHg 29%
    03:00 +17°C° 0 mm 2 m/S 588 mmHg 30%
    04:00 +18°C° 0 mm 1 m/S 587 mmHg 31%
    05:00 +16°C° 0 mm 1 m/S 587 mmHg 32%
    06:00 +18°C° 0 mm 1 m/S 588 mmHg 30%
    07:00 +19°C° 0 mm 1 m/S 589 mmHg 27%
    08:00 +20°C° 0 mm 1 m/S 589 mmHg 25%
    09:00 +21°C° 0 mm 2 m/S 590 mmHg 22%
    10:00 +23°C° 0 mm 2 m/S 590 mmHg 19%
    11:00 +25°C° 0 mm 3 m/S 590 mmHg 15%
    12:00 +26°C° 0 mm 3 m/S 590 mmHg 14%
    13:00 +26°C° 0 mm 3 m/S 590 mmHg 12%
    14:00 +27°C° 0 mm 3 m/S 590 mmHg 10%
    15:00 +28°C° 0 mm 3 m/S 589 mmHg 10%
    16:00 +28°C° 0 mm 3 m/S 589 mmHg 9%
    17:00 +28°C° 0 mm 3 m/S 589 mmHg 8%
    18:00 +27°C° 0 mm 3 m/S 589 mmHg 10%
    19:00 +26°C° 0 mm 3 m/S 589 mmHg 12%
    20:00 +25°C° 0 mm 3 m/S 589 mmHg 14%
    21:00 +24°C° 0 mm 3 m/S 588 mmHg 16%
    22:00 +22°C° 0 mm 3 m/S 588 mmHg 18%
    23:00 +21°C° 0 mm 3 m/S 588 mmHg 20%
    Mehr zeigen